Location: Caseificio
(44.7500°N, 11.0500°E)
Time: 22:41:48
(UTC+00:00)

SL-16 R/B - Pass Details

Date: 26 May 2022
Orbit: 839 x 850 km, 71.0° (Epoch: 26 June)

Event Time Altitude Azimuth Distance (km) Brightness Sun altitude
Exits shadow 00:16:20 24° 134° (SE) 1,676 3.5 -22.6°
Maximum altitude 00:18:07 29° 103° (ESE) 1,514 3.5 -22.5°
Drops below altitude 10° 00:22:53 10° 46° (NE) 2,472 5.5 -22.2°
Sets 00:25:37 0° 35° (NE) 3,414 6.6 -22.1°
